This is the latest recevied weather packets stored in our database for station/object R2AJV-13. If no packets are shown the sender has not sent any weather packets the latest 10 day(s).
| Time | Temp. | Humidity | Pressure | Rain* | Wind** | Luminosity | Snow |
|---|---|---|---|---|---|---|---|
| 1787904943 | 18.89° C | 65% | 1013.2 hPa | 0 mm | - | - | - |
| 1787904032 | 18.33° C | 66% | 1013.3 hPa | 0 mm | - | - | - |
| 1787903128 | 18.33° C | 67% | 1013.1 hPa | 0 mm | - | - | - |
| 1787902217 | 17.78° C | 67% | 1013.3 hPa | 0 mm | - | - | - |
| 1787901365 | 17.78° C | 67% | 1013.1 hPa | 0 mm | - | - | - |
| 1787900455 | 17.78° C | 70% | 1013.3 hPa | 0 mm | - | - | - |
| 1787899544 | 16.67° C | 73% | 1013.1 hPa | 0 mm | - | - | - |
| 1787898644 | 16.11° C | 75% | 1013 hPa | 0 mm | - | - | - |
| 1787897729 | 16.11° C | 73% | 1013.1 hPa | 0 mm | - | - | - |
| 1787896818 | 15° C | 80% | 1013 hPa | 0 mm | - | - | - |
| 1787895968 | 15° C | 83% | 1013.1 hPa | 0 mm | - | - | - |
| 1787895062 | 14.44° C | 86% | 1013 hPa | 0 mm | - | - | - |
| 1787894151 | 13.89° C | 88% | 1013 hPa | 0 mm | - | - | - |
| 1787893269 | 12.22° C | 96% | 1013.1 hPa | 0 mm | - | - | - |
| 1787892363 | 11.67° C | 99% | 1013.2 hPa | 0 mm | - | - | - |
| 1787891453 | 10.56° C | 99% | 1013.2 hPa | 0 mm | - | - | - |
| 1787890543 | 8.89° C | 99% | 1013.2 hPa | 0 mm | - | - | - |
| 1787889632 | 7.22° C | 99% | 1013 hPa | 0 mm | - | - | - |
| 1787888727 | 6.67° C | 99% | 1013 hPa | 0 mm | - | - | - |
| 1787887817 | 6.67° C | 99% | 1013 hPa | 0 mm | - | - | - |
| 1787886965 | 6.11° C | 99% | 1012.9 hPa | 0 mm | - | - | - |
| 1787886055 | 5.56° C | 99% | 1012.8 hPa | 0 mm | - | - | - |
| 1787885144 | 5.56° C | 99% | 1012.8 hPa | 0 mm | - | - | - |
| 1787884240 | 6.11° C | 99% | 1012.7 hPa | 0 mm | - | - | - |
| 1787883329 | 6.11° C | 99% | 1012.6 hPa | 0 mm | - | - | - |
* Rain latest hour (hover to see other rain measurements)
** Current wind speed in m/s (hover to see current wind gust speed)